• In Hungary
  • List of Countries
  • For 7 days
  • Water Temperature
  • Satellite Maps
  • Weather Map
  • News
  • Weather Widgets
  • user-avatar
    Login

    Hourly Weather Kinshasa

    Today, 25 September, Tuesday

    Time Temperature Precipitation Wind Pressure Humidity
    00:00 +22°C° 0 mm 1 mps 707 mmHg 94%
    01:00 +20°C° 0 mm 0 mps 707 mmHg 94%
    02:00 +20°C° 0 mm 0 mps 707 mmHg 94%
    03:00 +21°C° 0 mm 1 mps 707 mmHg 95%
    04:00 +21°C° 0 mm 1 mps 707 mmHg 95%
    05:00 +22°C° 0 mm 1 mps 707 mmHg 95%
    06:00 +22°C° 0 mm 1 mps 708 mmHg 94%
    07:00 +22°C° 0 mm 1 mps 708 mmHg 93%
    08:00 +25°C° 0 mm 1 mps 708 mmHg 83%
    09:00 +28°C° 0 mm 1 mps 709 mmHg 73%
    10:00 +30°C° 0 mm 1 mps 709 mmHg 63%
    11:00 +31°C° 0 mm 1 mps 708 mmHg 59%
    12:00 +32°C° 0 mm 1 mps 708 mmHg 55%
    13:00 +33°C° 0 mm 1 mps 707 mmHg 52%
    14:00 +33°C° 0.2 mm 1 mps 706 mmHg 56%
    15:00 +32°C° 0.2 mm 1 mps 706 mmHg 60%
    16:00 +32°C° 0.2 mm 1 mps 705 mmHg 64%
    17:00 +30°C° 0.3 mm 1 mps 705 mmHg 70%
    18:00 +28°C° 0.3 mm 1 mps 706 mmHg 77%
    19:00 +26°C° 0.3 mm 1 mps 706 mmHg 83%
    20:00 +25°C° 0.8 mm 1 mps 706 mmHg 87%
    21:00 +24°C° 0.8 mm 1 mps 707 mmHg 91%
    22:00 +23°C° 0.8 mm 1 mps 707 mmHg 95%
    23:00 +23°C° 0.6 mm 1 mps 707 mmHg 95%

    Tomorrow, 26 September, Wednesday

    Time Temperature Precipitation Wind Pressure Humidity
    00:00 +23°C° 0.6 mm 1 mps 707 mmHg 96%
    01:00 +21°C° 0.6 mm 0 mps 707 mmHg 96%
    02:00 +23°C° 1.7 mm 1 mps 707 mmHg 97%
    03:00 +22°C° 1.7 mm 1 mps 707 mmHg 97%
    04:00 +22°C° 1.7 mm 1 mps 706 mmHg 98%
    05:00 +22°C° 0.2 mm 1 mps 707 mmHg 97%
    06:00 +23°C° 0.2 mm 1 mps 707 mmHg 97%
    07:00 +23°C° 0.2 mm 1 mps 708 mmHg 96%
    08:00 +25°C° 1 mm 1 mps 708 mmHg 93%
    09:00 +26°C° 1 mm 1 mps 709 mmHg 91%
    10:00 +27°C° 1 mm 2 mps 709 mmHg 88%
    11:00 +28°C° 0.9 mm 2 mps 708 mmHg 84%
    12:00 +29°C° 0.9 mm 1 mps 707 mmHg 80%
    13:00 +30°C° 0.9 mm 1 mps 706 mmHg 76%
    14:00 +29°C° 0.2 mm 1 mps 706 mmHg 77%
    15:00 +29°C° 0.2 mm 1 mps 705 mmHg 79%
    16:00 +29°C° 0.2 mm 1 mps 705 mmHg 80%
    17:00 +27°C° 0.3 mm 1 mps 705 mmHg 85%
    18:00 +26°C° 0.3 mm 1 mps 706 mmHg 89%
    19:00 +24°C° 0.3 mm 1 mps 706 mmHg 93%
    20:00 +22°C° 0 mm 0 mps 706 mmHg 92%
    21:00 +21°C° 0 mm 0 mps 707 mmHg 91%
    22:00 +21°C° 0 mm 0 mps 707 mmHg 90%
    23:00 +21°C° 0.1 mm 0 mps 707 mmHg 90%

    Day after tomorrow, 27 September, Thursday

    Time Temperature Precipitation Wind Pressure Humidity
    00:00 +21°C° 0.1 mm 0 mps 706 mmHg 90%
    01:00 +22°C° 0.1 mm 1 mps 706 mmHg 91%
    02:00 +22°C° 0.1 mm 1 mps 706 mmHg 92%
    03:00 +22°C° 0.1 mm 1 mps 706 mmHg 94%
    04:00 +22°C° 0.1 mm 1 mps 706 mmHg 95%
    05:00 +22°C° 0 mm 1 mps 706 mmHg 95%
    06:00 +23°C° 0 mm 1 mps 707 mmHg 95%
    07:00 +23°C° 0 mm 1 mps 708 mmHg 95%
    08:00 +24°C° 0.4 mm 1 mps 708 mmHg 90%
    09:00 +26°C° 0.4 mm 1 mps 709 mmHg 85%
    10:00 +27°C° 0.4 mm 2 mps 709 mmHg 80%
    11:00 +28°C° 1 mm 1 mps 708 mmHg 80%
    12:00 +28°C° 1 mm 1 mps 707 mmHg 80%
    13:00 +29°C° 1 mm 1 mps 707 mmHg 80%
    14:00 +29°C° 0.2 mm 1 mps 706 mmHg 78%
    15:00 +29°C° 0.2 mm 1 mps 706 mmHg 77%
    16:00 +28°C° 0.2 mm 1 mps 706 mmHg 76%
    17:00 +27°C° 0.1 mm 1 mps 706 mmHg 81%
    18:00 +25°C° 0.1 mm 1 mps 706 mmHg 87%
    19:00 +24°C° 0.1 mm 1 mps 707 mmHg 92%
    20:00 +23°C° 0.3 mm 1 mps 707 mmHg 92%
    21:00 +23°C° 0.3 mm 1 mps 707 mmHg 93%
    22:00 +22°C° 0.3 mm 1 mps 707 mmHg 93%
    23:00 +22°C° 0 mm 1 mps 707 mmHg 94%

    28 September, Friday

    Time Temperature Precipitation Wind Pressure Humidity
    00:00 +22°C° 0 mm 1 mps 706 mmHg 94%
    01:00 +21°C° 0 mm 1 mps 705 mmHg 94%
    02:00 +21°C° 0 mm 1 mps 706 mmHg 95%
    03:00 +21°C° 0 mm 1 mps 706 mmHg 95%
    04:00 +21°C° 0 mm 1 mps 706 mmHg 96%
    05:00 +21°C° 0 mm 1 mps 706 mmHg 95%
    06:00 +22°C° 0 mm 1 mps 707 mmHg 93%
    07:00 +22°C° 0 mm 1 mps 708 mmHg 92%
    08:00 +25°C° 0 mm 1 mps 708 mmHg 83%
    09:00 +27°C° 0 mm 1 mps 709 mmHg 74%
    10:00 +29°C° 0 mm 1 mps 709 mmHg 65%
    11:00 +30°C° 0 mm 1 mps 708 mmHg 61%
    12:00 +31°C° 0 mm 1 mps 707 mmHg 57%
    13:00 +32°C° 0 mm 1 mps 706 mmHg 53%
    14:00 +32°C° 0 mm 1 mps 706 mmHg 56%
    15:00 +32°C° 0 mm 1 mps 706 mmHg 58%
    16:00 +32°C° 0 mm 1 mps 705 mmHg 61%
    17:00 +30°C° 0 mm 1 mps 706 mmHg 67%
    18:00 +28°C° 0 mm 1 mps 706 mmHg 73%
    19:00 +26°C° 0 mm 1 mps 706 mmHg 79%
    20:00 +25°C° 0 mm 1 mps 706 mmHg 81%
    21:00 +25°C° 0 mm 1 mps 707 mmHg 83%
    22:00 +24°C° 0 mm 1 mps 707 mmHg 84%
    23:00 +24°C° 0 mm 1 mps 707 mmHg 87%

    29 September, Saturday

    Time Temperature Precipitation Wind Pressure Humidity
    00:00 +23°C° 0 mm 1 mps 706 mmHg 89%
    01:00 +21°C° 0 mm 0 mps 706 mmHg 92%
    02:00 +23°C° 0 mm 1 mps 706 mmHg 93%
    03:00 +22°C° 0 mm 1 mps 706 mmHg 94%
    04:00 +22°C° 0 mm 1 mps 705 mmHg 95%
    05:00 +23°C° 0 mm 1 mps 706 mmHg 93%
    06:00 +23°C° 0 mm 1 mps 707 mmHg 91%
    07:00 +24°C° 0 mm 1 mps 707 mmHg 90%
    08:00 +25°C° 0.1 mm 1 mps 708 mmHg 84%
    09:00 +27°C° 0.1 mm 1 mps 708 mmHg 78%
    10:00 +29°C° 0.1 mm 1 mps 709 mmHg 73%
    11:00 +30°C° 0.7 mm 1 mps 708 mmHg 71%
    12:00 +30°C° 0.7 mm 1 mps 707 mmHg 69%
    13:00 +31°C° 0.7 mm 1 mps 706 mmHg 68%
    14:00 +31°C° 0.9 mm 1 mps 706 mmHg 68%
    15:00 +29°C° 0.9 mm 0 mps 705 mmHg 69%
    16:00 +28°C° 0.9 mm 0 mps 705 mmHg 69%
    17:00 +26°C° 1.1 mm 0 mps 706 mmHg 77%
    18:00 +26°C° 1.1 mm 1 mps 706 mmHg 85%
    19:00 +24°C° 1.1 mm 1 mps 706 mmHg 93%
    20:00 +24°C° 0.3 mm 1 mps 706 mmHg 94%
    21:00 +24°C° 0.3 mm 1 mps 707 mmHg 95%
    22:00 +23°C° 0.3 mm 1 mps 707 mmHg 96%
    23:00 +23°C° 0 mm 1 mps 707 mmHg 96%

    30 September, Sunday

    Time Temperature Precipitation Wind Pressure Humidity
    00:00 +23°C° 0 mm 1 mps 706 mmHg 97%
    01:00 +23°C° 0 mm 1 mps 706 mmHg 97%
    02:00 +23°C° 0 mm 1 mps 706 mmHg 98%
    03:00 +22°C° 0 mm 1 mps 705 mmHg 98%
    04:00 +22°C° 0 mm 1 mps 705 mmHg 98%
    05:00 +23°C° 0 mm 1 mps 706 mmHg 97%
    06:00 +23°C° 0 mm 1 mps 707 mmHg 97%
    07:00 +23°C° 0 mm 1 mps 708 mmHg 96%
    08:00 +24°C° 0.5 mm 1 mps 708 mmHg 94%
    09:00 +25°C° 0.5 mm 1 mps 708 mmHg 91%
    10:00 +26°C° 0.5 mm 1 mps 708 mmHg 89%
    11:00 +27°C° 0.8 mm 1 mps 708 mmHg 85%
    12:00 +28°C° 0.8 mm 1 mps 707 mmHg 81%
    13:00 +29°C° 0.8 mm 1 mps 707 mmHg 76%
    14:00 +30°C° 0 mm 1 mps 706 mmHg 73%
    15:00 +30°C° 0 mm 1 mps 706 mmHg 70%
    16:00 +30°C° 0 mm 1 mps 706 mmHg 67%
    17:00 +28°C° 0 mm 1 mps 706 mmHg 72%
    18:00 +27°C° 0 mm 1 mps 706 mmHg 77%
    19:00 +25°C° 0 mm 1 mps 707 mmHg 82%
    20:00 +25°C° 0 mm 1 mps 707 mmHg 84%
    21:00 +24°C° 0 mm 1 mps 707 mmHg 86%
    22:00 +24°C° 0 mm 1 mps 707 mmHg 88%
    23:00 +24°C° 0 mm 1 mps 706 mmHg 90%
    Show more